Regional Weather Roundup
Issued by NWS Grand Forks, ND

Home | Current Version | Previous Version | Text Only | Print | Product List | Glossary On
Versions: 1 2 3 4 5 6 7 8 9 10 11 12 13 14 15 16 17 18 19 20 21 22 23 24 25 26 27 28 29 30 31 32 33 34 35 36 37 38 39 40 41 42 43 44 45 46 47 48 49 50
000
ASUS43 KFGF 292031
RWRFGF
PRAIRIE TO PINES  WEATHER ROUNDUP
NATIONAL WEATHER SERVICE EASTERN NORTH DAKOTA/GRAND FORKS ND
300 PM CDT FRI JUL 29 2016

 **SATELLITE DATA USED TO AUGMENT SKY COVER AT AUTOMATED STATIONS**
 *****  WEATHER ACROSS EASTERN NORTH DAKOTA  *****

CITY           SKY/WX    TMP DP  RH WIND       PRES   REMARKS
GRAND FORKS    PTSUNNY   79  54  41 W5        30.04F
GRAND FRKS AFB MOSUNNY   77  53  43 VRB3      30.05F
DEVILS LAKE    MOSUNNY   76  57  51 SW7       30.07F
FARGO          MOSUNNY   79  57  46 SW3       30.04F
WAHPETON ARPT  CLOUDY    79  55  44 NW3       30.05S
$$

 ***** WEATHER ACROSS CENTRAL AND WESTERN NORTH DAKOTA  *****

CITY           SKY/WX    TMP DP  RH WIND       PRES   REMARKS
BISMARCK       PTSUNNY   80  58  46 S7        30.05F
MINOT          CLOUDY    79  61  53 S8        30.03F
JAMESTOWN      TSTM      69  65  86 S12       30.06R
MINOT AFB      MOSUNNY   78  60  53 SE12      30.02F
GARRISON         N/A     75  61  61 VRB3      30.05F
WILLISTON      MOSUNNY   82  39  21 S3        30.03F
DICKINSON      PTSUNNY   75  55  49 VRB3      30.04F
HETTINGER      PTSUNNY   82  54  37 S9G17     30.06F
$$

 *****  OTHER AIRPORT OBSERVATIONS IN OUR AREA  *****

CITY           SKY/WX    TMP DP  RH WIND       PRES   REMARKS
WALHALLA       FAIR      75  72  88 SE7       30.04F
GRAFTON AIRPOR FAIR      77  55  47 SE6       30.06F
VALLEY CITY AR FAIR      77  59  53 E3        30.08F
CANDO          FAIR      75  61  60 S3        30.08F
CAVALIER APRT  FAIR      77  52  41 E3        30.05F
GWINNER        FAIR      81  63  54 S6        30.06F
ROLLA            N/A     75  55  50 SW7       30.08S
 ***** THE ABOVE OBSERVATIONS ARE NON NWS ARE NOT QUALITY
       CONTROLLED AND MAY MIS-REPORT RAIN FOR SNOW...
$$

  *****  WEATHER ACROSS NORTHERN MINNESOTA  *****

CITY           SKY/WX    TMP DP  RH WIND       PRES   REMARKS
FLAG ISLAND    SUNNY     75  52  43 SE6       30.05F
WARROAD        SUNNY     75  61  60 NE8       30.06F
ROSEAU         MOSUNNY   81  61  50 CALM      30.05F
HALLOCK        SUNNY     77  55  47 CALM      30.04F
THF RVR FALLS  CLOUDY    76  54  46 VRB3      30.07F
BAUDETTE       MOSUNNY   80  56  43 VRB6      30.06F
WASKISH        SUNNY     79  61  53 W7        30.06F
CROOKSTON      MOSUNNY   77  54  44 CALM      30.05F
STEPHEN NDAWN    N/A     79  57  47 W2          N/A
GREENBUSH NDAW   N/A     79  55  44 NW2         N/A
$$
  *****  WEATHER ACROSS CENTRAL AND WEST MINNESOTA  *****

CITY           SKY/WX    TMP DP  RH WIND       PRES   REMARKS
FOSSTON        SUNNY     79  55  44 CALM      30.06F
BEMIDJI        MOSUNNY   78  57  48 E7        30.06F
PARK RAPIDS    PTSUNNY   76  56  49 SE6       30.06F
ELBOW LAKE     CLOUDY    74  62  65 SW7       30.07S
WADENA         MOSUNNY   75  59  57 S7        30.06F
DETROIT LAKES  MOSUNNY   77  55  47 W8        30.07F
MOORHEAD       CLOUDY    79  57  47 CALM      30.05F
FERGUS FALLS   PTSUNNY   75  63  64 S12       30.05F
MORRIS MN      MOSUNNY   79  57  47 SE3       30.06F
STAPLES        SUNNY     79  54  41 SE3       30.07F
$$
  *****  WEATHER ELSEWHERE ACROSS MINNESOTA  *****

CITY           SKY/WX    TMP DP  RH WIND       PRES   REMARKS
DULUTH         MOSUNNY   73  48  41 MISG      30.11F
INTRNTL FALLS  PTSUNNY   76  57  51 NE6       30.07F
ELY            PTSUNNY   75  46  35 CALM      30.09F
CLOQUET        SUNNY     73  41  31 NE8       30.10F
WHEATON        CLOUDY    79  63  57 S3        30.07F
BRAINERD       SUNNY     76  54  46 CALM      30.08F
HIBBING        MOSUNNY   75  50  41 VRB3      30.09F
ALEXANDRIA     PTSUNNY   75  53  46 VRB5      30.09F
SAINT CLOUD    MOSUNNY   76  54  46 NE9       30.07F
MINNEAPOLIS    MOSUNNY   78  50  37 NE7       30.04F
$$

  *****  WEATHER ACROSS SOUTH DAKOTA  *****

CITY           SKY/WX    TMP DP  RH WIND       PRES   REMARKS
SIOUX FALLS    MOSUNNY   78  56  46 NE8       30.07F
BROOKINGS      MOSUNNY   76  56  49 E9        30.08F
WATERTOWN      PTSUNNY   78  55  44 S9        30.08F
HURON          MOSUNNY   81  53  37 VRB5      30.05F
SISSETON         N/A     75  59  57 W10       30.06F
ABERDEEN       NOT AVBL
MITCHELL       SUNNY     82  55  39 MISG      30.06F
PIERRE         MOSUNNY   81  56  42 S15       30.03F
MOBRIDGE       MOSUNNY   81  57  43 S15       30.02F
RAPID CITY     PTSUNNY   77  54  44 SE6       30.06F
$$

  *****  SOME WEATHER IN NEARBY STATES *****

CITY           SKY/WX    TMP DP  RH WIND       PRES   REMARKS
GLASGOW MT     PTSUNNY   72  59  63 VRB6      30.02S
GREAT FALLS MT SUNNY     82  50  32 NW3       30.07F
CHEYENNE WY    MOSUNNY   76  55  48 S15       30.20F
SCOTTSBLUFF NE SUNNY     84  59  42 E17       30.08F
OMAHA NE       MOSUNNY   81  61  50 NW8       30.03S
DES MOINES IA  CLOUDY    71  63  75 NW10      30.00F
DAVENPORT IA   MOSUNNY   78  68  71 NW7       29.92F
CHICAGO IL     TSTM      74  68  81 NE12      29.94R
EAU CLAIRE WI  MOSUNNY   76  56  49 VRB3      30.03F
LA CROSSE WI   CLOUDY    76  64  66 NE3       30.00F
$$

  *****  SOME NATIONAL WEATHER *****

CITY           SKY/WX    TMP DP  RH WIND       PRES   REMARKS
LA GUARDIA NY  MOSUNNY   83  68  60 NE8       29.83S
RALEIGH NC     PTSUNNY   92  69  47 VRB6      29.92F HX  97
ATLANTA GA     PTSUNNY   92  66  42 W17G25    29.99F HX  94
NEW ORLEANS LA FAIR      94  75  54 E6        30.00F HX 105
OKLAHOMA CITY  PTSUNNY   81  71  71 NE13      29.99S
ALBUQUERQUE NM MOSUNNY   92  48  22 SW20G28   30.13F
SALT LAKE CITY MOSUNNY   99  34  10 NW12      30.01F HX  93
LOS ANGELES CA SUNNY     78  65  63 W14       29.84F
BOISE ID       SUNNY     96  42  15 N7G17     29.95F HX  92
SEATTLE WA     SUNNY     82  61  48 NW14      30.00F
$$

*** WEATHER ACROSS MANITOBA...SASKATCHEWAN AND ONTARIO ***
                ***ONTARIO***

CITY           SKY/WX    TMP DP  RH WIND       PRES   REMARKS
GERALDTON      MOSUNNY   77  48  36 NW7       30.07F
THUNDER BAY    MOSUNNY   77  54  44 S10       30.07S
SIOUX LOOKOUT  PTSUNNY   77  50  38 VRB2      30.07F
TORONTO        PTSUNNY   81  59  47 SE10      29.95F
BIG TROUT LK   MOSUNNY   73  50  43 S3        29.99F
PICKLE LAKE    MOSUNNY   81  46  30 W3        30.02F
DRYDEN         SUNNY     77  46  33 S7        30.07F
KENORA         PTSUNNY   77  52  41 S12       30.07F
$$
                *** MANITOBA***

CITY           SKY/WX    TMP DP  RH WIND       PRES   REMARKS
BRANDON        MOSUNNY   79  52  38 SW10      30.03F
DAUPHIN        SUNNY     82  57  42 W9        29.97F
ISLAND LAKE    CLOUDY    81  63  54 N2        29.94F
PILOT MOUND      N/A     73  54  49 S5          N/A
THE PAS        PTSUNNY   73  61  64 S9        29.91F
THOMPSON       PTSUNNY   66  59  77 N12       29.93F
WINNIPEG       MOSUNNY   77  57  50 SW6       30.04F
LYNN LAKE      LGT RAIN  64  61  88 MISG      29.92F
CHURCHILL      PTSUNNY   63  46  55 NE8       30.04S
GILLAM         PTSUNNY   70  52  52 E7        29.99F
$$
                ***SASKATCHEWAN***

CITY           SKY/WX    TMP DP  RH WIND       PRES   REMARKS
ESTEVAN        CLOUDY    77  55  47 VRB2      30.03F
KINDERSLEY     MOSUNNY   77  59  53 W6        29.99F
LLOYDMINSTER   MOSUNNY   77  57  50 W7        29.95F
PRINCE ALBERT  PTSUNNY   72  61  68 S3        29.93F
REGINA         PTSUNNY   77  63  61 W9        29.99S
YORKTON        SUNNY     77  55  47 S7        29.99F
N. BATTLEFORD  MOSUNNY   77  57  50 NW6       29.96F
LA RONGE       PTSUNNY   73  61  64 S5        29.87F THUNDER
SASKATOON      PTSUNNY   75  61  60 CALM      29.97F
SWIFT CURRENT  PTSUNNY   77  61  57 NW8       30.01F
$$
NOTE: THESE ARE AUTOMATED STATIONS WITH LIMITED QUALITY CONTROL
      "FAIR" INDICATES FEW OR NO CLOUDS BELOW 12,000 FEET WITH NO
      SIGNIFICANT WEATHER AND/OR OBSTRUCTIONS TO VISIBILITY.
      SKY/WX - SKY CONDITION AND SIGNIFICANT WEATHER.
      TMP - AIR TEMPERATURE.    DP   - DEWPOINT TEMPERATURE.
      RH  - RELATIVE HUMIDITY.  PRES - PRESSURE.
      HX  - HEAT INDEX.         WCI  - WIND CHILL INDEX.
$



USA.gov is the U.S. government's official web portal to all federal, state and local government web resources and services.